Tracking 19638 objects as of 19-May-2019
HD Live streaming from Space Station
objects crossing your sky now

SHINSEI (MS-F2)

Track SHINSEI (MS-F2) now!
10-day predictions
SHINSEI (MS-F2) is classified as:


NORAD ID: 5485
Int'l Code: 1971-080A
Perigee: 876.5 km
Apogee: 1,868.1 km
Inclination: 32.1 °
Period: 113.0 minutes
Semi major axis: 7743 km
RCS: 0.8279 m2 (medium)
Launch date: September 28, 1971
Source: Japan (JPN)
Launch site: KAGOSHIMA SPACE CENTER UNIVERSITY OF TOKYO (KSCUT)
aabbcc
Your satellite tracking list
Your tracking list is empty




NASA's NSSDC Master Catalog

Two Line Element Set (TLE):
1  5485U 71080A   19138.43278231  .00000023  00000-0 -20745-4 0  9998
2  5485  32.0549 134.5652 0640334 217.6675 137.7375 12.74131334219326
Source of the keplerian elements: AFSPC